KD4PYR Weather Reports


Display with metric or nautical units.
time (UTC)temp
F
wind
direction
speed
MPH
gust
MPH
rain 1hr
in
rain 24hr
in
rain mn
in
humidity
%
barometer
mb
20260504043911 52 191 2.0 5.0 0.00 0.01 0.00 63 1010.6
20260504042842 52 174 3.0 6.0 0.00 0.01 0.00 62 1010.6
20260504041834 53 192 2.0 7.0 0.00 0.01 0.00 62 1010.7
20260504040828 53 180 2.0 10.0 0.00 0.01 0.00 61 1010.8
20260504035831 53 202 1.0 6.0 0.00 0.01 0.01 61 1011.0
20260504034835 53 175 3.0 5.0 0.00 0.01 0.01 61 1011.2
20260504033828 53 159 2.0 5.0 0.00 0.01 0.01 61 1011.2
20260504032846 53 169 2.0 7.0 0.00 0.01 0.01 61 1011.2
20260504031839 54 173 2.0 7.0 0.00 0.01 0.01 60 1011.2
20260504030828 54 172 1.0 4.0 0.00 0.01 0.01 61 1011.2
20260504025830 54 151 2.0 7.0 0.00 0.01 0.01 61 1011.2
20260504024833 54 184 1.0 6.0 0.00 0.01 0.01 61 1011.2
20260504023825 54 176 2.0 7.0 0.00 0.01 0.01 62 1011.2
20260504022843 54 158 3.0 5.0 0.00 0.01 0.01 63 1011.2
20260504021903 53 184 2.0 7.0 0.00 0.01 0.01 66 1011.2
20260504020901 52 197 3.0 8.0 0.00 0.01 0.01 70 1010.8
20260504015825 51 167 1.0 3.0 0.00 0.01 0.01 74 1010.9
20260504014830 51 165 0.0 4.0 0.00 0.01 0.01 76 1011.0
20260504013849 51 167 0.0 3.0 0.01 0.01 0.01 75 1011.1
20260504012840 51 288 0.0 1.0 0.01 0.01 0.01 77 1010.8
20260504011835 51 288 0.0 1.0 0.01 0.01 0.01 76 1010.6
20260504010825 51 273 0.0 1.0 0.01 0.01 0.01 75 1010.5
20260504005856 53 273 0.0 3.0 0.01 0.01 0.01 72 1011.2
20260504004818 54 179 0.0 2.0 0.01 0.01 0.01 66 1011.2
20260504003836 55 184 2.0 6.0 0.00 0.00 0.00 59 1011.3
20260504002834 56 177 2.0 7.0 0.00 0.00 0.00 53 1011.2
20260504001825 57 171 1.0 3.0 0.00 0.00 0.00 50 1011.2
20260504000844 57 157 2.0 6.0 0.00 0.00 0.00 49 1010.9
20260503235855 57 153 4.0 7.0 0.00 0.00 0.00 47 1010.9
20260503234856 58 185 4.0 10.0 0.00 0.00 0.00 46 1011.0
20260503233829 58 175 2.0 8.0 0.00 0.00 0.00 46 1010.9
20260503232848 58 181 3.0 9.0 0.00 0.00 0.00 46 1010.6
20260503231818 58 186 4.0 8.0 0.00 0.00 0.00 44 1011.0
20260503230835 59 176 2.0 10.0 0.00 0.00 0.00 44 1011.3
20260503225816 59 198 4.0 7.0 0.00 0.00 0.00 43 1011.4
20260503224840 59 167 4.0 10.0 0.00 0.00 0.00 44 1011.8
20260503223832 59 194 4.0 8.0 0.00 0.00 0.00 45 1012.0
20260503222825 59 196 3.0 9.0 0.00 0.00 0.00 43 1012.1
20260503221903 60 181 5.0 13.0 0.00 0.00 0.00 44 1012.2
20260503220900 60 200 5.0 12.0 0.00 0.00 0.00 44 1012.3
20260503215835 60 174 4.0 8.0 0.00 0.00 0.00 46 1012.6
20260503214837 60 162 4.0 8.0 0.00 0.00 0.00 42 1012.7
20260503213827 59 192 5.0 12.0 0.00 0.00 0.00 43 1012.7
20260503212840 60 182 2.0 11.0 0.00 0.00 0.00 43 1012.6
20260503211831 60 182 5.0 12.0 0.00 0.00 0.00 43 1012.8
20260503210822 60 184 3.0 7.0 0.00 0.00 0.00 44 1012.9
20260503205827 60 171 7.0 14.0 0.00 0.00 0.00 43 1013.0
20260503204828 60 191 5.0 8.0 0.00 0.00 0.00 41 1013.0
20260503203818 60 150 5.0 14.0 0.00 0.00 0.00 41 1013.2
20260503202837 60 179 7.0 11.0 0.00 0.00 0.00 42 1013.2
20260503201829 61 146 3.0 12.0 0.00 0.00 0.00 45 1013.3
20260503200820 60 162 4.0 12.0 0.00 0.00 0.00 44 1013.5
20260503195852 60 159 4.0 10.0 0.00 0.00 0.00 44 1013.5
20260503194833 60 150 5.0 10.0 0.00 0.00 0.00 43 1013.7
20260503193825 59 189 7.0 11.0 0.00 0.00 0.00 43 1014.1
20260503192816 60 200 3.0 12.0 0.00 0.00 0.00 45 1014.5
20260503191834 60 196 3.0 12.0 0.00 0.00 0.00 44 1014.5
20260503190824 60 194 6.0 12.0 0.00 0.00 0.00 43 1014.7
20260503185828 60 251 2.0 9.0 0.00 0.00 0.00 44 1014.8
20260503184830 60 186 5.0 11.0 0.00 0.00 0.00 46 1014.8
20260503183820 59 221 6.0 11.0 0.00 0.00 0.00 43 1015.0
20260503182837 60 171 3.0 15.0 0.00 0.00 0.00 41 1015.2
20260503181834 59 176 3.0 11.0 0.00 0.00 0.00 48 1015.2
20260503180825 58 199 6.0 13.0 0.00 0.00 0.00 43 1015.4
20260503175831 59 190 6.0 12.0 0.00 0.00 0.00 41 1015.5
20260503174832 59 173 4.0 13.0 0.00 0.00 0.00 43 1015.5
20260503173827 58 169 3.0 9.0 0.00 0.00 0.00 45 1015.7
20260503172819 58 183 4.0 11.0 0.00 0.00 0.00 46 1016.0
20260503171837 58 155 2.0 7.0 0.00 0.00 0.00 47 1016.3
20260503170828 58 159 2.0 9.0 0.00 0.00 0.00 44 1016.3
20260503150824 52 179 3.0 9.0 0.00 0.00 0.00 60 1017.9
20260503130820 42 159 3.0 7.0 0.00 0.00 0.00 74 1017.7
20260503110816 35 153 1.0 5.0 0.00 0.00 0.00 81 1017.0
20260503080819 37 360 0.0 2.0 0.00 0.00 0.00 80 1016.3
20260503072834 37 360 0.0 1.0 0.00 0.00 0.00 81 1016.2
20260503071826 37 360 0.0 1.0 0.00 0.00 0.00 81 1016.2
20260503070817 36 360 0.0 1.0 0.00 0.00 0.00 80 1016.2
20260503054829 37 360 0.0 0.0 0.00 0.00 0.00 79 1016.5
20260503053824 37 360 0.0 1.0 0.00 0.00 0.00 79 1016.5
20260503052815 37 360 0.0 0.0 0.00 0.00 0.00 79 1016.5
20260503051836 37 360 0.0 1.0 0.00 0.00 0.00 79 1016.5
20260503050825 37 360 0.0 0.0 0.00 0.00 0.00 79 1016.5
20260503045855 37 360 0.0 0.0 0.00 0.00 0.00 79 1016.6
20260503044835 37 360 0.0 0.0 0.00 0.00 0.00 79 1016.5